CW1852 Weather Reports


Display with metric or nautical units.
time (UTC)temp
F
wind
direction
speed
MPH
gust
MPH
rain 1hr
in
rain 24hr
in
rain mn
in
humidity
%
barometer
mb
20260507124203 51 317 1.0 9.0 0.00 0.74 0.18 87 1005.1
20260507123202 49 310 3.0 10.0 0.00 0.74 0.18 89 1004.9
20260507122203 49 302 4.0 9.0 0.00 0.74 0.18 92 1005.0
20260507121202 48 270 3.0 12.0 0.00 0.74 0.18 92 1005.0
20260507120203 48 312 6.0 11.0 0.00 0.74 0.18 94 1004.6
20260507115245 48 316 2.0 9.0 0.00 0.74 0.18 96 1004.8
20260507114202 47 297 2.0 6.0 0.00 0.74 0.18 95 1004.9
20260507113203 47 296 2.0 5.0 0.00 0.74 0.18 95 1005.1
20260507112224 47 288 2.0 5.0 0.00 0.74 0.18 96 1005.0
20260507111202 47 334 2.0 5.0 0.00 0.74 0.18 95 1005.3
20260507110203 47 296 2.0 4.0 0.00 0.74 0.18 96 1005.0
20260507105224 47 296 2.0 4.0 0.00 0.74 0.18 96 1005.7
20260507104202 47 296 2.0 3.0 0.00 0.74 0.18 96 1006.0
20260507103203 47 296 1.0 8.0 0.00 0.74 0.18 96 1005.3
20260507102203 47 290 1.0 5.0 0.00 0.74 0.18 96 1005.2
20260507101224 47 285 2.0 5.0 0.00 0.74 0.18 96 1005.3
20260507100203 47 310 3.0 6.0 0.00 0.74 0.18 96 1004.6
20260507095203 47 273 3.0 6.0 0.01 0.74 0.18 96 1004.8
20260507094202 47 295 2.0 6.0 0.01 0.74 0.18 96 1004.6
20260507093203 48 312 3.0 7.0 0.01 0.74 0.18 96 1004.4
20260507092203 48 283 3.0 7.0 0.00 0.73 0.17 96 1004.6
20260507091203 48 295 1.0 5.0 0.00 0.73 0.17 96 1004.5
20260507090202 49 285 2.0 5.0 0.00 0.73 0.17 96 1004.6
20260507085204 49 285 0.0 3.0 0.00 0.73 0.17 96 1004.3
20260507084202 49 285 1.0 3.0 0.00 0.73 0.17 96 1004.2
20260507083203 49 285 1.0 3.0 0.00 0.73 0.17 96 1004.2
20260507082204 49 285 1.0 4.0 0.00 0.73 0.17 96 1004.5
20260507081203 49 285 2.0 4.0 0.00 0.73 0.17 96 1004.5
20260507080203 50 311 3.0 7.0 0.00 0.73 0.17 96 1004.1
20260507075203 50 295 3.0 6.0 0.00 0.73 0.17 96 1004.2
20260507074203 50 302 3.0 5.0 0.00 0.73 0.17 96 1003.7
20260507073203 50 315 1.0 5.0 0.00 0.73 0.17 96 1003.8
20260507072224 50 339 1.0 3.0 0.00 0.73 0.17 96 1003.7
20260507071203 50 339 1.0 2.0 0.00 0.73 0.17 96 1003.5
20260507070203 50 339 1.0 4.0 0.00 0.73 0.17 96 1003.3
20260507065203 50 339 2.0 4.0 0.01 0.73 0.17 96 1003.2
20260507064203 50 336 2.0 6.0 0.01 0.73 0.17 96 1003.5
20260507063224 50 291 1.0 8.0 0.00 0.72 0.16 96 1003.3
20260507062204 50 295 3.0 8.0 0.00 0.72 0.16 96 1003.3
20260507061202 50 306 3.0 9.0 0.00 0.72 0.16 96 1002.9
20260507060203 50 309 2.0 9.0 0.00 0.72 0.16 96 1003.1
20260507055245 50 325 3.0 8.0 0.02 0.72 0.16 96 1003.1
20260507054224 51 298 1.0 6.0 0.02 0.72 0.16 96 1003.0
20260507053245 51 312 3.0 6.0 0.02 0.72 0.16 96 1003.0
20260507052203 51 308 4.0 9.0 0.01 0.71 0.15 96 1003.0
20260507051203 51 284 1.0 6.0 0.01 0.71 0.15 96 1003.1
20260507050202 50 15 3.0 9.0 0.00 0.70 0.14 96 1002.8
20260507045224 50 267 2.0 10.0 0.13 0.69 0.13 96 1003.3
20260507044203 49 253 6.0 14.0 0.09 0.65 0.09 96 1003.3
20260507043202 49 236 4.0 11.0 0.03 0.59 0.03 96 1002.8
20260507042203 49 234 5.0 11.0 0.01 0.57 0.01 96 1002.7
20260507041203 49 239 5.0 11.0 0.00 0.56 0.00 96 1002.8
20260507040203 49 254 3.0 9.0 0.00 0.56 0.00 96 1002.9
20260507035203 49 259 4.0 8.0 0.00 0.56 0.56 96 1002.8
20260507034224 49 252 3.0 9.0 0.00 0.56 0.56 96 1002.9
20260507033203 49 216 4.0 12.0 0.00 0.56 0.56 96 1002.9
20260507032204 48 233 4.0 12.0 0.00 0.56 0.56 96 1003.0
20260507031203 49 205 5.0 14.0 0.00 0.56 0.56 95 1002.9
20260507030203 49 213 6.0 14.0 0.00 0.56 0.56 95 1003.0
20260507025203 50 209 8.0 20.0 0.00 0.56 0.56 96 1003.1
20260507024202 50 199 7.0 15.0 0.00 0.56 0.56 95 1003.2
20260507023203 50 193 10.0 19.0 0.00 0.56 0.56 95 1003.3
20260507022203 50 205 8.0 18.0 0.00 0.56 0.56 95 1003.4
20260507021203 50 193 7.0 19.0 0.00 0.56 0.56 95 1003.5
20260507020203 50 192 8.0 20.0 0.00 0.56 0.56 95 1003.7
20260507015203 50 198 9.0 20.0 0.02 0.56 0.56 95 1003.8
20260507014203 50 188 12.0 24.0 0.02 0.56 0.56 95 1003.8
20260507013203 50 188 8.0 24.0 0.02 0.56 0.56 95 1004.0
20260507012224 50 181 12.0 26.0 0.02 0.56 0.56 95 1004.0
20260507011203 50 171 11.0 23.0 0.01 0.55 0.55 95 1004.1
20260507010203 50 175 9.0 22.0 0.00 0.54 0.54 95 1004.2
20260507005202 50 187 12.0 26.0 0.04 0.54 0.54 95 1004.2
20260507004225 50 179 13.0 24.0 0.03 0.53 0.53 95 1004.4
20260507003203 50 178 13.0 34.0 0.02 0.52 0.52 95 1004.4
20260507002224 50 167 12.0 23.0 0.01 0.51 0.51 95 1004.3
20260507001203 50 175 13.0 24.0 0.00 0.50 0.50 95 1004.5
20260507000205 50 176 13.0 26.0 0.00 0.50 0.50 95 1004.5
20260506235202 50 175 15.0 29.0 0.09 0.50 0.50 95 1004.6
20260506234203 50 176 13.0 26.0 0.08 0.49 0.49 95 1004.7
20260506233204 50 173 13.0 25.0 0.07 0.48 0.48 95 1004.9
20260506232202 50 169 11.0 24.0 0.05 0.46 0.46 94 1004.9
20260506231203 51 177 12.0 23.0 0.02 0.43 0.43 95 1005.0
20260506230203 51 184 11.0 25.0 0.00 0.41 0.41 95 1005.0
20260506225203 51 179 11.0 22.0 0.26 0.39 0.39 94 1005.1
20260506224202 51 185 13.0 30.0 0.23 0.36 0.36 94 1005.2
20260506223203 51 175 11.0 27.0 0.19 0.32 0.32 94 1005.3
20260506222203 51 182 13.0 24.0 0.14 0.27 0.27 94 1005.6
20260506221202 51 179 13.0 27.0 0.05 0.18 0.18 94 1005.4
20260506220203 51 185 12.0 25.0 0.00 0.13 0.13 94 1005.7
20260506215203 52 187 10.0 24.0 0.06 0.12 0.12 94 1005.8
20260506214203 52 190 11.0 24.0 0.03 0.09 0.09 94 1005.8
20260506213203 52 184 11.0 24.0 0.02 0.08 0.08 94 1005.8
20260506212202 52 186 11.0 28.0 0.01 0.07 0.07 93 1005.9
20260506211203 52 182 11.0 25.0 0.00 0.06 0.06 94 1005.8
20260506205203 53 197 11.0 22.0 0.04 0.05 0.05 93 1006.0
20260506204203 53 205 12.0 22.0 0.03 0.04 0.04 93 1006.1
20260506203202 52 196 10.0 26.0 0.03 0.04 0.04 93 1005.8
20260506202203 53 192 10.0 21.0 0.02 0.03 0.03 93 1006.3
20260506201224 53 204 13.0 24.0 0.01 0.02 0.02 92 1006.5
20260506200202 53 192 10.0 22.0 0.01 0.02 0.02 92 1006.2
20260506195203 53 198 8.0 20.0 0.00 0.00 0.00 92 1006.2
20260506194203 53 201 8.0 25.0 0.00 0.00 0.00 90 1006.1
20260506193202 53 193 12.0 26.0 0.00 0.00 0.00 89 1006.0
20260506192203 53 180 12.0 26.0 0.00 0.00 0.00 88 1005.6
20260506191203 53 189 10.0 27.0 0.00 0.00 0.00 88 1005.7
20260506190202 53 191 13.0 28.0 0.00 0.00 0.00 87 1006.0
20260506185203 54 187 10.0 24.0 0.00 0.00 0.00 87 1006.2
20260506184203 54 200 9.0 20.0 0.00 0.00 0.00 87 1006.4
20260506183202 54 185 10.0 25.0 0.00 0.00 0.00 86 1006.5
20260506182203 55 182 9.0 22.0 0.00 0.00 0.00 85 1006.7
20260506181202 54 189 10.0 25.0 0.00 0.00 0.00 86 1006.8
20260506180203 54 198 8.0 18.0 0.00 0.00 0.00 87 1006.9
20260506175202 54 193 5.0 14.0 0.00 0.00 0.00 87 1006.9
20260506174203 54 202 10.0 19.0 0.00 0.00 0.00 86 1007.1
20260506173224 54 203 8.0 18.0 0.00 0.00 0.00 86 1007.2
20260506172202 54 209 9.0 19.0 0.00 0.00 0.00 85 1007.3
20260506171203 54 198 9.0 16.0 0.00 0.00 0.00 85 1007.5
20260506170203 55 209 7.0 16.0 0.00 0.00 0.00 85 1007.8
20260506165203 54 210 6.0 18.0 0.00 0.00 0.00 85 1007.9
20260506164203 55 205 9.0 17.0 0.00 0.00 0.00 84 1008.0
20260506163245 56 204 7.0 21.0 0.00 0.00 0.00 85 1008.3
20260506162203 55 212 7.0 15.0 0.00 0.00 0.00 85 1008.4
20260506161203 54 213 7.0 15.0 0.00 0.00 0.00 86 1008.5
20260506160202 54 220 6.0 14.0 0.00 0.00 0.00 85 1008.8
20260506155203 54 218 4.0 22.0 0.00 0.00 0.00 86 1008.9
20260506154223 55 202 11.0 20.0 0.00 0.00 0.00 84 1008.8
20260506153203 56 217 6.0 16.0 0.00 0.00 0.00 83 1008.8
20260506152203 57 194 10.0 25.0 0.00 0.00 0.00 82 1008.6
20260506151203 56 200 12.0 23.0 0.00 0.00 0.00 84 1008.4
20260506150203 57 201 10.0 24.0 0.00 0.00 0.00 83 1008.3
20260506145202 57 204 7.0 17.0 0.00 0.00 0.00 83 1008.4
20260506144224 56 194 8.0 18.0 0.00 0.00 0.00 84 1008.5
20260506143203 55 206 6.0 13.0 0.00 0.00 0.00 84 1008.9
20260506142202 54 249 5.0 13.0 0.00 0.00 0.00 86 1009.1
20260506141203 54 201 5.0 14.0 0.00 0.00 0.00 86 1009.0
20260506140202 54 199 9.0 20.0 0.00 0.00 0.00 87 1008.9
20260506135203 54 199 6.0 12.0 0.00 0.00 0.00 88 1009.1
20260506134202 53 228 4.0 9.0 0.00 0.00 0.00 88 1009.1
20260506133204 52 208 5.0 16.0 0.00 0.00 0.00 88 1008.9
20260506132202 53 224 4.0 14.0 0.00 0.00 0.00 87 1009.0
20260506131203 54 203 3.0 12.0 0.00 0.00 0.00 89 1008.6
20260506130224 53 225 4.0 15.0 0.00 0.00 0.00 89 1008.6
20260506125202 54 211 7.0 17.0 0.00 0.00 0.00 87 1008.8